Time,TemperatureF,DewpointF,PressureIn,WindDirection,WindDirectionDegrees,WindSpeedMPH,WindSpeedGustMPH,Humidity,HourlyPrecipIn,Conditions,Clouds,dailyrainin,SoftwareType,DateUTC
2013-03-03 00:01:00,37.0,32.0,30.77,West,270,0.0,0.0,82,-99.99,,,-99.99,,2013-03-03 08:01:00,
2013-03-03 00:11:00,37.0,32.0,30.77,West,270,0.0,0.0,82,-99.99,,,-99.99,,2013-03-03 08:11:00,
2013-03-03 00:21:00,37.0,32.0,30.77,West,270,0.0,0.0,83,-99.99,,,-99.99,,2013-03-03 08:21:00,
2013-03-03 00:31:00,37.0,32.0,30.77,West,270,0.0,0.0,83,-99.99,,,-99.99,,2013-03-03 08:31:00,
2013-03-03 00:41:00,37.0,32.0,30.77,West,270,0.0,0.0,83,-99.99,,,-99.99,,2013-03-03 08:41:00,
2013-03-03 00:53:00,37.0,32.0,30.77,West,270,0.0,0.0,82,-99.99,,,-99.99,,2013-03-03 08:53:00,
2013-03-03 01:01:00,37.0,32.0,30.77,West,270,0.0,0.0,83,-99.99,,,-99.99,,2013-03-03 09:01:00,
2013-03-03 01:11:00,37.0,32.0,30.77,West,270,0.0,0.0,83,-99.99,,,-99.99,,2013-03-03 09:11:00,
2013-03-03 01:21:00,38.0,33.0,30.77,West,270,0.0,0.0,83,-99.99,,,-99.99,,2013-03-03 09:21:00,
2013-03-03 01:32:00,38.0,33.0,30.79,West,270,0.0,0.0,83,-99.99,,,-99.99,,2013-03-03 09:32:00,
2013-03-03 01:41:00,38.0,33.0,30.79,West,270,0.0,0.0,83,-99.99,,,-99.99,,2013-03-03 09:41:00,
2013-03-03 01:51:00,38.0,33.0,30.79,West,270,0.0,0.0,83,-99.99,,,-99.99,,2013-03-03 09:51:00,
2013-03-03 02:01:00,38.0,33.0,30.79,West,270,0.0,0.0,83,-99.99,,,-99.99,,2013-03-03 10:01:00,
2013-03-03 02:11:00,38.0,33.0,30.79,West,270,0.0,0.0,83,-99.99,,,-99.99,,2013-03-03 10:11:00,
2013-03-03 02:21:00,38.0,33.0,30.79,West,270,0.0,0.0,82,-99.99,,,-99.99,,2013-03-03 10:21:00,
2013-03-03 02:31:00,38.0,33.0,30.79,West,270,0.0,0.0,82,-99.99,,,-99.99,,2013-03-03 10:31:00,
2013-03-03 02:41:00,38.0,33.0,30.79,West,270,0.0,0.0,82,-99.99,,,-99.99,,2013-03-03 10:41:00,
2013-03-03 02:51:00,38.0,33.0,30.79,West,270,0.0,0.0,82,-99.99,,,-99.99,,2013-03-03 10:51:00,
2013-03-03 03:01:00,37.0,32.0,30.79,West,270,0.0,0.0,82,-99.99,,,-99.99,,2013-03-03 11:01:00,
2013-03-03 03:11:00,37.0,32.0,30.79,West,270,0.0,0.0,82,-99.99,,,-99.99,,2013-03-03 11:11:00,
2013-03-03 03:21:00,38.0,33.0,30.79,West,270,0.0,0.0,82,-99.99,,,-99.99,,2013-03-03 11:21:00,
2013-03-03 03:31:00,38.0,33.0,30.79,West,270,0.0,0.0,82,-99.99,,,-99.99,,2013-03-03 11:31:00,
2013-03-03 03:41:00,38.0,33.0,30.79,West,270,0.0,0.0,82,-99.99,,,-99.99,,2013-03-03 11:41:00,
2013-03-03 03:52:00,38.0,33.0,30.79,West,270,0.0,0.0,81,-99.99,,,-99.99,,2013-03-03 11:52:00,
2013-03-03 04:01:00,38.0,33.0,30.79,West,270,0.0,0.0,81,-99.99,,,-99.99,,2013-03-03 12:01:00,
2013-03-03 04:11:00,38.0,33.0,30.79,West,270,0.0,0.0,81,-99.99,,,-99.99,,2013-03-03 12:11:00,
2013-03-03 04:21:00,37.0,32.0,30.79,West,270,0.0,0.0,81,-99.99,,,-99.99,,2013-03-03 12:21:00,
2013-03-03 04:32:00,37.0,32.0,30.80,West,270,0.0,0.0,81,-99.99,,,-99.99,,2013-03-03 12:32:00,
2013-03-03 04:42:00,37.0,32.0,30.80,West,270,0.0,0.0,81,-99.99,,,-99.99,,2013-03-03 12:42:00,
2013-03-03 04:52:00,37.0,32.0,30.80,West,270,0.0,0.0,81,-99.99,,,-99.99,,2013-03-03 12:52:00,
2013-03-03 05:01:00,37.0,31.0,30.81,West,270,0.0,0.0,80,-99.99,,,-99.99,,2013-03-03 13:01:00,
2013-03-03 05:11:00,37.0,31.0,30.81,West,270,0.0,0.0,80,-99.99,,,-99.99,,2013-03-03 13:11:00,
2013-03-03 05:21:00,37.0,31.0,30.81,West,270,0.0,0.0,80,-99.99,,,-99.99,,2013-03-03 13:21:00,
2013-03-03 05:31:00,37.0,32.0,30.81,West,270,0.0,0.0,81,-99.99,,,-99.99,,2013-03-03 13:31:00,
2013-03-03 05:41:00,37.0,32.0,30.81,West,270,0.0,0.0,81,-99.99,,,-99.99,,2013-03-03 13:41:00,
2013-03-03 05:51:00,37.0,32.0,30.81,West,270,0.0,0.0,81,-99.99,,,-99.99,,2013-03-03 13:51:00,
2013-03-03 06:01:00,36.0,30.0,30.82,West,270,0.0,0.0,80,-99.99,,,-99.99,,2013-03-03 14:01:00,
2013-03-03 06:11:00,36.0,30.0,30.82,West,270,0.0,0.0,80,-99.99,,,-99.99,,2013-03-03 14:11:00,
2013-03-03 06:21:00,36.0,31.0,30.82,West,270,0.0,0.0,81,-99.99,,,-99.99,,2013-03-03 14:21:00,
2013-03-03 06:31:00,36.0,31.0,30.82,West,270,0.0,0.0,81,-99.99,,,-99.99,,2013-03-03 14:31:00,
2013-03-03 06:42:00,36.0,31.0,30.82,West,270,0.0,0.0,81,-99.99,,,-99.99,,2013-03-03 14:42:00,
2013-03-03 06:52:00,35.0,30.0,30.82,West,270,0.0,0.0,81,-99.99,,,-99.99,,2013-03-03 14:52:00,
2013-03-03 07:01:00,35.0,30.0,30.82,West,270,0.0,0.0,82,-99.99,,,-99.99,,2013-03-03 15:01:00,
2013-03-03 07:11:00,35.0,30.0,30.82,West,270,0.0,0.0,82,-99.99,,,-99.99,,2013-03-03 15:11:00,
2013-03-03 07:21:00,35.0,30.0,30.82,West,270,0.0,0.0,81,-99.99,,,-99.99,,2013-03-03 15:21:00,
2013-03-03 07:31:00,36.0,30.0,30.82,West,270,0.0,0.0,80,-99.99,,,-99.99,,2013-03-03 15:31:00,
2013-03-03 07:41:00,36.0,30.0,30.82,West,270,0.0,0.0,80,-99.99,,,-99.99,,2013-03-03 15:41:00,
2013-03-03 07:52:00,36.0,30.0,30.83,West,270,0.0,0.0,80,-99.99,,,-99.99,,2013-03-03 15:52:00,
2013-03-03 08:01:00,39.0,33.0,30.83,West,270,0.0,0.0,79,-99.99,,,-99.99,,2013-03-03 16:01:00,
2013-03-03 08:11:00,39.0,33.0,30.83,West,270,0.0,0.0,79,-99.99,,,-99.99,,2013-03-03 16:11:00,
2013-03-03 08:21:00,41.0,34.0,30.83,West,270,0.0,0.0,76,-99.99,,,-99.99,,2013-03-03 16:21:00,
2013-03-03 08:31:00,44.0,35.0,30.84,West,270,0.0,0.0,71,-99.99,,,-99.99,,2013-03-03 16:31:00,
2013-03-03 08:51:00,45.0,36.0,30.85,West,270,0.0,0.0,70,-99.99,,,-99.99,,2013-03-03 16:51:00,
2013-03-03 09:01:00,46.0,36.0,30.84,West,270,0.0,0.0,68,-99.99,,,-99.99,,2013-03-03 17:01:00,
2013-03-03 09:11:00,47.0,37.0,30.85,West,270,0.0,0.0,67,-99.99,,,-99.99,,2013-03-03 17:11:00,
2013-03-03 09:32:00,49.0,37.0,30.84,West,270,0.0,0.0,64,-99.99,,,-99.99,,2013-03-03 17:32:00,
2013-03-03 09:52:00,50.0,38.0,30.85,West,270,0.0,0.0,62,-99.99,,,-99.99,,2013-03-03 17:52:00,
2013-03-03 10:01:00,52.0,39.0,30.84,West,270,0.0,0.0,60,-99.99,,,-99.99,,2013-03-03 18:01:00,
2013-03-03 10:21:00,53.0,39.0,30.85,West,270,0.0,0.0,58,-99.99,,,-99.99,,2013-03-03 18:21:00,
2013-03-03 10:31:00,55.0,39.0,30.85,West,270,0.0,0.0,55,-99.99,,,-99.99,,2013-03-03 18:31:00,
2013-03-03 10:52:00,56.0,40.0,30.85,West,270,0.0,0.0,54,-99.99,,,-99.99,,2013-03-03 18:52:00,
2013-03-03 11:01:00,56.0,38.0,30.85,West,270,0.0,0.0,50,-99.99,,,-99.99,,2013-03-03 19:01:00,
2013-03-03 11:11:00,55.0,38.0,30.84,West,270,0.0,0.0,52,-99.99,,,-99.99,,2013-03-03 19:11:00,
2013-03-03 11:21:00,55.0,38.0,30.84,West,270,0.0,0.0,52,-99.99,,,-99.99,,2013-03-03 19:21:00,
2013-03-03 11:31:00,55.0,38.0,30.85,West,270,0.0,0.0,52,-99.99,,,-99.99,,2013-03-03 19:31:00,
2013-03-03 11:51:00,55.0,38.0,30.84,West,270,0.0,0.0,52,-99.99,,,-99.99,,2013-03-03 19:51:00,
2013-03-03 12:01:00,56.0,37.0,30.85,West,270,0.0,0.0,49,-99.99,,,-99.99,,2013-03-03 20:01:00,
2013-03-03 12:21:00,56.0,37.0,30.85,West,270,0.0,0.0,48,-99.99,,,-99.99,,2013-03-03 20:21:00,
2013-03-03 12:32:00,56.0,36.0,30.85,West,270,0.0,0.0,47,-99.99,,,-99.99,,2013-03-03 20:32:00,
2013-03-03 12:52:00,55.0,35.0,30.85,West,270,0.0,0.0,47,-99.99,,,-99.99,,2013-03-03 20:52:00,
2013-03-03 13:01:00,56.0,35.0,30.85,West,270,0.0,0.0,45,-99.99,,,-99.99,,2013-03-03 21:01:00,
2013-03-03 13:21:00,56.0,34.0,30.85,West,270,0.0,0.0,44,-99.99,,,-99.99,,2013-03-03 21:21:00,
2013-03-03 13:31:00,57.0,35.0,30.86,West,270,0.0,0.0,43,-99.99,,,-99.99,,2013-03-03 21:31:00,
2013-03-03 13:52:00,58.0,35.0,30.86,West,270,0.0,0.0,42,-99.99,,,-99.99,,2013-03-03 21:52:00,
2013-03-03 14:01:00,58.0,34.0,30.85,West,270,0.0,0.0,41,-99.99,,,-99.99,,2013-03-03 22:01:00,
2013-03-03 14:21:00,58.0,34.0,30.85,West,270,0.0,0.0,40,-99.99,,,-99.99,,2013-03-03 22:21:00,
2013-03-03 14:31:00,57.0,34.0,30.86,West,270,0.0,0.0,42,-99.99,,,-99.99,,2013-03-03 22:31:00,
2013-03-03 14:52:00,56.0,33.0,30.85,West,270,0.0,0.0,42,-99.99,,,-99.99,,2013-03-03 22:52:00,
2013-03-03 15:01:00,55.0,32.0,30.86,West,270,0.0,0.0,42,-99.99,,,-99.99,,2013-03-03 23:01:00,
2013-03-03 15:21:00,55.0,32.0,30.86,West,270,0.0,0.0,42,-99.99,,,-99.99,,2013-03-03 23:21:00,
2013-03-03 15:31:00,54.0,31.0,30.86,West,270,0.0,0.0,41,-99.99,,,-99.99,,2013-03-03 23:31:00,
2013-03-03 15:52:00,52.0,30.0,30.86,West,270,0.0,0.0,42,-99.99,,,-99.99,,2013-03-03 23:52:00,
2013-03-03 16:01:00,49.0,29.0,30.86,West,270,0.0,0.0,45,-99.99,,,-99.99,,2013-03-04 00:01:00,
2013-03-03 16:11:00,49.0,29.0,30.86,West,270,0.0,0.0,45,-99.99,,,-99.99,,2013-03-04 00:11:00,
2013-03-03 16:21:00,48.0,29.0,30.86,West,270,0.0,0.0,47,-99.99,,,-99.99,,2013-03-04 00:21:00,
2013-03-03 16:32:00,49.0,30.0,30.86,West,270,0.0,0.0,47,-99.99,,,-99.99,,2013-03-04 00:32:00,
2013-03-03 16:41:00,49.0,30.0,30.86,West,270,0.0,0.0,47,-99.99,,,-99.99,,2013-03-04 00:41:00,
2013-03-03 16:52:00,50.0,31.0,30.86,West,270,0.0,0.0,47,-99.99,,,-99.99,,2013-03-04 00:52:00,
2013-03-03 17:01:00,50.0,31.0,30.86,West,270,0.0,0.0,47,-99.99,,,-99.99,,2013-03-04 01:01:00,
2013-03-03 17:11:00,50.0,31.0,30.86,West,270,0.0,0.0,47,-99.99,,,-99.99,,2013-03-04 01:11:00,
2013-03-03 17:21:00,49.0,30.0,30.86,West,270,0.0,0.0,48,-99.99,,,-99.99,,2013-03-04 01:21:00,
2013-03-03 17:31:00,48.0,30.0,30.86,West,270,0.0,0.0,49,-99.99,,,-99.99,,2013-03-04 01:31:00,
2013-03-03 17:41:00,48.0,30.0,30.86,West,270,0.0,0.0,49,-99.99,,,-99.99,,2013-03-04 01:41:00,
2013-03-03 17:51:00,48.0,30.0,30.86,West,270,0.0,0.0,50,-99.99,,,-99.99,,2013-03-04 01:51:00,
2013-03-03 18:01:00,46.0,29.0,30.86,West,270,0.0,0.0,52,-99.99,,,-99.99,,2013-03-04 02:01:00,
2013-03-03 18:11:00,46.0,29.0,30.86,West,270,0.0,0.0,52,-99.99,,,-99.99,,2013-03-04 02:11:00,
2013-03-03 18:22:00,45.0,29.0,30.87,West,270,0.0,0.0,54,-99.99,,,-99.99,,2013-03-04 02:22:00,
2013-03-03 18:31:00,44.0,29.0,30.86,West,270,0.0,0.0,55,-99.99,,,-99.99,,2013-03-04 02:31:00,
2013-03-03 18:41:00,44.0,29.0,30.86,West,270,0.0,0.0,55,-99.99,,,-99.99,,2013-03-04 02:41:00,
2013-03-03 18:52:00,44.0,29.0,30.87,West,270,0.0,0.0,55,-99.99,,,-99.99,,2013-03-04 02:52:00,
2013-03-03 19:01:00,43.0,29.0,30.86,West,270,0.0,0.0,58,-99.99,,,-99.99,,2013-03-04 03:01:00,
2013-03-03 19:11:00,43.0,29.0,30.86,West,270,0.0,0.0,58,-99.99,,,-99.99,,2013-03-04 03:11:00,
2013-03-03 19:21:00,43.0,29.0,30.86,West,270,0.0,0.0,58,-99.99,,,-99.99,,2013-03-04 03:21:00,
2013-03-03 19:31:00,42.0,29.0,30.86,West,270,0.0,0.0,59,-99.99,,,-99.99,,2013-03-04 03:31:00,
2013-03-03 19:41:00,42.0,29.0,30.87,West,270,0.0,0.0,60,-99.99,,,-99.99,,2013-03-04 03:41:00,
2013-03-03 19:52:00,42.0,29.0,30.87,West,270,0.0,0.0,60,-99.99,,,-99.99,,2013-03-04 03:52:00,
2013-03-03 20:01:00,42.0,30.0,30.86,West,270,0.0,0.0,61,-99.99,,,-99.99,,2013-03-04 04:01:00,
2013-03-03 20:11:00,42.0,30.0,30.86,West,270,0.0,0.0,61,-99.99,,,-99.99,,2013-03-04 04:11:00,
2013-03-03 20:21:00,42.0,30.0,30.86,West,270,0.0,0.0,61,-99.99,,,-99.99,,2013-03-04 04:21:00,
2013-03-03 20:31:00,42.0,29.0,30.86,West,270,0.0,0.0,60,-99.99,,,-99.99,,2013-03-04 04:31:00,
2013-03-03 20:41:00,42.0,29.0,30.86,West,270,0.0,0.0,60,-99.99,,,-99.99,,2013-03-04 04:41:00,
2013-03-03 20:51:00,42.0,30.0,30.86,West,270,0.0,0.0,61,-99.99,,,-99.99,,2013-03-04 04:51:00,
2013-03-03 21:01:00,42.0,30.0,30.86,West,270,0.0,0.0,61,-99.99,,,-99.99,,2013-03-04 05:01:00,
2013-03-03 21:11:00,42.0,30.0,30.86,West,270,0.0,0.0,61,-99.99,,,-99.99,,2013-03-04 05:11:00,
2013-03-03 21:22:00,42.0,30.0,30.87,West,270,0.0,0.0,61,-99.99,,,-99.99,,2013-03-04 05:22:00,
2013-03-03 21:31:00,42.0,31.0,30.87,West,270,0.0,0.0,64,-99.99,,,-99.99,,2013-03-04 05:31:00,
2013-03-03 21:42:00,42.0,31.0,30.87,West,270,0.0,0.0,64,-99.99,,,-99.99,,2013-03-04 05:42:00,
2013-03-03 21:52:00,42.0,31.0,30.87,West,270,0.0,0.0,64,-99.99,,,-99.99,,2013-03-04 05:52:00,
2013-03-03 22:01:00,41.0,30.0,30.87,West,270,0.0,0.0,64,-99.99,,,-99.99,,2013-03-04 06:01:00,
2013-03-03 22:11:00,41.0,30.0,30.87,West,270,0.0,0.0,64,-99.99,,,-99.99,,2013-03-04 06:11:00,
2013-03-03 22:21:00,41.0,29.0,30.87,West,270,0.0,0.0,62,-99.99,,,-99.99,,2013-03-04 06:21:00,
2013-03-03 22:31:00,41.0,29.0,30.87,West,270,0.0,0.0,62,-99.99,,,-99.99,,2013-03-04 06:31:00,
2013-03-03 22:42:00,41.0,29.0,30.87,West,270,0.0,0.0,62,-99.99,,,-99.99,,2013-03-04 06:42:00,
2013-03-03 22:51:00,41.0,29.0,30.88,West,270,0.0,0.0,63,-99.99,,,-99.99,,2013-03-04 06:51:00,
2013-03-03 23:01:00,41.0,29.0,30.87,West,270,0.0,0.0,61,-99.99,,,-99.99,,2013-03-04 07:01:00,
2013-03-03 23:11:00,41.0,29.0,30.87,West,270,0.0,0.0,61,-99.99,,,-99.99,,2013-03-04 07:11:00,
2013-03-03 23:21:00,41.0,29.0,30.87,West,270,0.0,0.0,61,-99.99,,,-99.99,,2013-03-04 07:21:00,
2013-03-03 23:31:00,41.0,29.0,30.87,West,270,0.0,0.0,61,-99.99,,,-99.99,,2013-03-04 07:31:00,
2013-03-03 23:41:00,41.0,29.0,30.87,West,270,0.0,0.0,61,-99.99,,,-99.99,,2013-03-04 07:41:00,
2013-03-03 23:51:00,41.0,28.0,30.87,West,270,0.0,0.0,60,-99.99,,,-99.99,,2013-03-04 07:51:00,